FW2692 Weather Reports


time (UTC)temp
F
wind
direction
speed
knots
gust
knots
rain 1hr
in
rain 24hr
in
rain mn
in
humidity
%
barometer
mb
20260506125004 54 119 1.7 2.6 0.00 0.00 0.00 87 1017.9
20260506124504 54 119 1.7 2.6 0.00 0.00 0.00 86 1017.9
20260506124025 54 119 0.9 2.6 0.00 0.00 0.00 86 1017.8
20260506123504 54 119 0.9 2.6 0.00 0.00 0.00 86 1017.8
20260506123004 54 119 0.9 2.6 0.00 0.00 0.00 86 1017.8
20260506122504 54 119 0.9 2.6 0.00 0.00 0.00 86 1017.9
20260506122004 54 119 0.0 2.6 0.00 0.00 0.00 86 1017.9
20260506121504 54 119 0.9 2.6 0.00 0.00 0.00 86 1017.8
20260506121004 54 119 0.9 2.6 0.00 0.00 0.00 86 1017.7
20260506120504 54 119 0.9 2.6 0.00 0.00 0.00 86 1017.7
20260506120004 54 119 0.9 2.6 0.00 0.00 0.00 85 1017.7
20260506115503 54 119 0.9 2.6 0.00 0.00 0.00 85 1017.6
20260506115004 54 119 0.0 2.6 0.00 0.00 0.00 85 1017.6
20260506114504 54 119 0.0 1.7 0.00 0.00 0.00 85 1017.5
20260506114025 54 119 0.0 0.9 0.00 0.00 0.00 85 1017.4
20260506113504 54 119 0.0 1.7 0.00 0.00 0.00 84 1017.4
20260506113004 54 119 0.0 1.7 0.00 0.00 0.00 84 1017.3
20260506112504 54 119 0.0 1.7 0.00 0.00 0.00 84 1017.3
20260506112024 55 119 0.0 1.7 0.00 0.00 0.00 84 1017.2
20260506111504 55 0 0.0 0.0 0.00 0.00 0.00 84 1017.2
20260506111003 55 0 0.0 0.0 0.00 0.00 0.00 84 1017.2
20260506110504 55 0 0.0 0.0 0.00 0.00 0.00 84 1017.2
20260506110004 55 0 0.0 0.0 0.00 0.00 0.00 84 1017.1
20260506105504 55 0 0.0 0.0 0.00 0.00 0.00 84 1017.1
20260506105024 55 0 0.0 0.0 0.00 0.00 0.00 84 1017.1
20260506104504 55 0 0.0 0.0 0.00 0.00 0.00 84 1017.0
20260506104004 55 0 0.0 0.0 0.00 0.00 0.00 84 1016.9
20260506103504 55 119 0.0 0.9 0.00 0.00 0.00 84 1016.9
20260506103004 55 119 0.0 0.9 0.00 0.00 0.00 84 1016.9
20260506102524 55 119 0.0 0.9 0.00 0.00 0.00 84 1016.9
20260506102003 55 119 0.0 0.9 0.00 0.00 0.00 83 1016.9
20260506101503 55 0 0.0 0.0 0.00 0.00 0.00 83 1016.9
20260506101003 55 0 0.0 0.0 0.00 0.00 0.00 82 1016.8
20260506100504 56 119 0.9 2.6 0.00 0.00 0.00 82 1016.7
20260506100004 56 119 1.7 2.6 0.00 0.00 0.00 81 1016.6
20260506095525 56 119 1.7 2.6 0.00 0.00 0.00 81 1016.5
20260506095004 56 126 1.7 3.5 0.00 0.00 0.00 80 1016.5
20260506094503 57 131 1.7 3.5 0.00 0.00 0.00 79 1016.5
20260506094004 57 146 1.7 3.5 0.00 0.00 0.00 78 1016.4
20260506093503 58 169 1.7 3.5 0.00 0.00 0.00 76 1016.5
20260506093004 58 183 0.9 2.6 0.00 0.00 0.00 75 1016.5
20260506092504 58 194 1.7 4.3 0.00 0.00 0.00 75 1016.5
20260506092003 58 193 2.6 7.0 0.00 0.00 0.00 75 1016.4
20260506091503 58 196 2.6 7.0 0.00 0.00 0.00 76 1016.6
20260506091003 58 231 1.7 6.1 0.00 0.00 0.00 77 1016.6
20260506090504 58 288 0.9 3.5 0.00 0.00 0.00 78 1016.6
20260506090004 58 297 0.0 1.7 0.00 0.00 0.00 78 1016.6
20260506085503 58 297 0.0 1.7 0.00 0.00 0.00 77 1016.7
20260506085004 58 297 0.0 1.7 0.00 0.00 0.00 77 1016.8
20260506084504 58 298 0.0 0.9 0.00 0.01 0.00 77 1016.8
20260506084003 58 298 0.0 0.9 0.00 0.01 0.00 77 1016.9
20260506083503 58 297 0.0 1.7 0.00 0.01 0.00 77 1016.9
20260506083003 58 296 0.0 1.7 0.00 0.01 0.00 77 1017.0
20260506082503 58 286 0.0 0.9 0.00 0.01 0.00 77 1017.0
20260506082003 58 286 0.0 1.7 0.00 0.01 0.00 77 1016.9
20260506081503 58 286 0.0 1.7 0.00 0.02 0.00 77 1016.9
20260506081003 58 286 0.0 0.9 0.00 0.02 0.00 77 1016.9
20260506080524 58 286 0.0 0.9 0.00 0.02 0.00 76 1016.8
20260506073524 58 286 0.0 2.6 0.00 0.03 0.00 76 1016.6
20260506073003 58 286 0.9 2.6 0.00 0.03 0.00 76 1016.6
20260506072503 58 286 0.9 2.6 0.00 0.03 0.00 76 1016.5
20260506072003 58 286 0.9 2.6 0.00 0.03 0.00 76 1016.4
20260506071524 58 285 0.9 3.5 0.00 0.03 0.00 76 1016.3
20260506071003 58 284 0.9 3.5 0.00 0.03 0.00 75 1016.3
20260506070524 58 282 0.9 3.5 0.00 0.03 0.00 75 1016.2
20260506062507 58 265 0.9 3.5 0.00 0.03 0.03 75 1015.9
20260506062007 59 264 0.9 3.5 0.00 0.03 0.03 74 1015.8
20260506061507 59 251 0.9 2.6 0.00 0.03 0.03 74 1015.7
20260506061007 59 251 0.9 3.5 0.00 0.03 0.03 73 1015.7
20260506060507 59 261 0.0 3.5 0.00 0.03 0.03 73 1015.6
20260506051007 60 321 0.0 1.7 0.00 0.03 0.03 71 1015.3
20260506050506 60 321 0.0 1.7 0.00 0.03 0.03 71 1015.2
20260506045027 61 242 0.9 4.3 0.00 0.03 0.03 70 1015.2
20260506044506 61 223 1.7 6.1 0.00 0.03 0.03 69 1015.1
20260506044028 61 222 2.6 7.0 0.00 0.03 0.03 69 1015.0
20260506043507 61 224 2.6 7.0 0.00 0.03 0.03 69 1014.8
20260506043007 61 231 3.5 7.0 0.00 0.03 0.03 69 1014.7
20260506042506 61 241 4.3 8.7 0.00 0.03 0.03 68 1014.6
20260506042028 61 244 4.3 8.7 0.00 0.03 0.03 68 1014.6
20260506041507 62 242 4.3 8.7 0.00 0.03 0.03 68 1014.5
20260506041006 62 239 4.3 8.7 0.00 0.03 0.03 67 1014.4
20260506040507 62 241 4.3 7.8 0.00 0.03 0.03 67 1014.4
20260506040007 62 246 4.3 8.7 0.00 0.03 0.03 67 1014.5
20260506035508 62 244 5.2 9.6 0.00 0.03 0.03 67 1014.4
20260506035007 62 244 4.3 9.6 0.00 0.03 0.03 67 1014.3
20260506034507 62 248 3.5 8.7 0.00 0.03 0.03 67 1014.4
20260506034006 62 251 3.5 8.7 0.00 0.03 0.03 66 1014.4
20260506033507 62 258 2.6 7.8 0.00 0.03 0.03 66 1014.3
20260506033006 62 260 2.6 7.0 0.00 0.03 0.03 66 1014.3
20260506032506 63 259 3.5 7.0 0.00 0.03 0.03 66 1014.3
20260506032006 63 258 4.3 7.0 0.00 0.03 0.03 65 1014.2
20260506031506 63 256 3.5 7.0 0.00 0.03 0.03 65 1014.1
20260506031006 63 257 3.5 7.8 0.00 0.03 0.03 65 1014.1
20260506030506 63 254 4.3 7.8 0.00 0.03 0.03 65 1014.1
20260506030006 63 249 5.2 8.7 0.00 0.03 0.03 64 1013.9
20260506025528 63 248 4.3 8.7 0.00 0.03 0.03 65 1013.8
20260506025007 63 251 4.3 8.7 0.00 0.03 0.03 65 1013.8
20260506024527 63 254 5.2 8.7 0.00 0.03 0.03 65 1013.8
20260506024006 63 256 4.3 7.8 0.00 0.03 0.03 65 1013.7
20260506023527 63 251 5.2 10.4 0.00 0.03 0.03 65 1013.8
20260506023006 63 252 5.2 10.4 0.00 0.03 0.03 65 1013.7
20260506022506 63 253 4.3 10.4 0.00 0.03 0.03 65 1013.6
20260506022006 63 252 4.3 10.4 0.00 0.03 0.03 65 1013.5
20260506021507 64 252 4.3 10.4 0.00 0.03 0.03 65 1013.5
20260506021027 64 252 4.3 8.7 0.00 0.03 0.03 64 1013.5
20260506020506 64 251 5.2 8.7 0.00 0.03 0.03 64 1013.4
20260506020027 64 253 5.2 10.4 0.00 0.03 0.03 64 1013.5
20260506015527 64 255 5.2 10.4 0.00 0.03 0.03 63 1013.4
20260506015027 64 254 4.3 8.7 0.00 0.03 0.03 63 1013.5
20260506014527 65 281 3.5 7.8 0.00 0.03 0.03 62 1013.4
20260506014007 65 301 3.5 10.4 0.00 0.03 0.03 63 1013.4
20260506013506 65 293 4.3 10.4 0.00 0.03 0.03 63 1013.5
20260506013006 65 288 3.5 7.8 0.00 0.03 0.03 63 1013.5
20260506012507 65 294 3.5 7.8 0.00 0.03 0.03 63 1013.5
20260506012006 65 300 3.5 8.7 0.00 0.03 0.03 62 1013.5
20260506011507 65 294 2.6 8.7 0.00 0.03 0.03 62 1013.5
20260506011006 65 290 2.6 6.1 0.00 0.03 0.03 62 1013.6
20260506010506 65 273 3.5 7.8 0.00 0.03 0.03 62 1013.6
20260506010006 65 261 4.3 9.6 0.00 0.03 0.03 62 1013.6
20260506005506 65 263 3.5 9.6 0.00 0.03 0.03 62 1013.6
20260506005006 65 274 3.5 7.8 0.00 0.03 0.03 62 1013.6
20260506004527 65 292 4.3 9.6 0.00 0.03 0.03 62 1013.6
20260506004006 65 298 4.3 9.6 0.00 0.03 0.03 62 1013.5
20260506003506 65 288 4.3 9.6 0.00 0.03 0.03 62 1013.4
20260506003006 65 278 3.5 8.7 0.00 0.03 0.03 61 1013.4
20260506002506 65 268 4.3 12.2 0.00 0.03 0.03 62 1013.4
20260506002028 65 261 5.2 12.2 0.00 0.03 0.03 61 1013.4
20260506001506 65 265 2.6 7.8 0.00 0.03 0.03 61 1013.3
20260506001006 65 273 2.6 7.8 0.00 0.03 0.03 61 1013.3
20260506000507 65 260 4.3 9.6 0.00 0.03 0.03 61 1013.2
20260506000006 65 258 6.1 9.6 0.00 0.03 0.03 62 1013.2
20260505235527 65 262 4.3 9.6 0.00 0.03 0.03 62 1013.2
20260505235027 65 262 2.6 8.7 0.00 0.03 0.03 61 1013.2
20260505234506 65 260 4.3 8.7 0.00 0.03 0.03 62 1013.2
20260505234006 65 260 4.3 8.7 0.00 0.03 0.03 62 1013.2
20260505233506 64 257 2.6 7.8 0.00 0.03 0.03 63 1013.2
20260505233006 64 251 2.6 7.8 0.00 0.03 0.03 63 1013.3
20260505232527 64 267 2.6 7.0 0.00 0.03 0.03 63 1013.3
20260505232006 64 275 3.5 8.7 0.00 0.03 0.03 64 1013.3
20260505231506 64 264 3.5 8.7 0.00 0.03 0.03 64 1013.4
20260505231007 64 270 3.5 8.7 0.00 0.03 0.03 64 1013.4
20260505230506 64 276 3.5 8.7 0.00 0.03 0.03 64 1013.5
20260505230006 64 273 2.6 8.7 0.00 0.03 0.03 65 1013.5
20260505225506 63 274 2.6 6.1 0.00 0.03 0.03 65 1013.5
20260505225006 63 290 3.5 9.6 0.00 0.03 0.03 66 1013.5
20260505224506 63 283 3.5 9.6 0.00 0.03 0.03 66 1013.5
20260505224028 63 267 3.5 9.6 0.00 0.03 0.03 66 1013.5
20260505223506 63 274 4.3 9.6 0.00 0.03 0.03 66 1013.7
20260505223006 63 278 4.3 8.7 0.00 0.03 0.03 66 1013.7
20260505222506 63 274 4.3 10.4 0.00 0.03 0.03 66 1013.7
20260505222006 63 267 4.3 10.4 0.00 0.03 0.03 67 1013.7
20260505221506 63 258 4.3 8.7 0.00 0.03 0.03 67 1013.7
20260505221006 63 263 4.3 8.7 0.00 0.03 0.03 67 1013.8
20260505220506 63 268 4.3 8.7 0.00 0.03 0.03 67 1013.7
20260505220006 63 277 4.3 8.7 0.00 0.03 0.03 68 1013.8
20260505215506 63 284 4.3 8.7 0.00 0.03 0.03 68 1013.8
20260505215006 63 290 4.3 9.6 0.00 0.03 0.03 67 1013.8
20260505214506 63 279 4.3 9.6 0.00 0.03 0.03 67 1013.8
20260505214006 63 262 4.3 10.4 0.00 0.03 0.03 67 1013.9
20260505213506 63 272 5.2 10.4 0.00 0.03 0.03 68 1013.9
20260505213006 63 273 5.2 10.4 0.00 0.03 0.03 68 1013.9
20260505212505 63 269 5.2 10.4 0.00 0.03 0.03 68 1013.9
20260505212026 62 263 4.3 10.4 0.00 0.03 0.03 69 1013.8
20260505211506 62 281 4.3 11.3 0.00 0.03 0.03 68 1013.8
20260505211027 63 297 4.3 11.3 0.00 0.03 0.03 67 1013.8
20260505210527 63 288 4.3 10.4 0.00 0.03 0.03 68 1013.8
20260505210006 63 283 4.3 10.4 0.00 0.03 0.03 68 1013.8
20260505205506 62 290 3.5 9.6 0.00 0.03 0.03 69 1013.9
20260505205006 62 296 4.3 11.3 0.00 0.03 0.03 69 1014.0
20260505204505 62 289 4.3 11.3 0.00 0.03 0.03 69 1014.0
20260505204006 62 279 4.3 10.4 0.00 0.03 0.03 70 1014.0
20260505203506 62 272 4.3 10.4 0.00 0.03 0.03 69 1014.0
20260505203026 61 260 5.2 10.4 0.00 0.03 0.03 70 1014.0
20260505202506 61 256 7.0 12.2 0.00 0.03 0.03 71 1014.0
20260505202006 61 260 7.0 12.2 0.00 0.03 0.03 70 1014.1
20260505201527 61 265 6.1 11.3 0.00 0.03 0.03 71 1014.1
20260505201006 61 267 4.3 11.3 0.00 0.03 0.03 70 1014.2
20260505200505 61 265 4.3 9.6 0.00 0.03 0.03 70 1014.2
20260505200006 61 279 4.3 11.3 0.00 0.03 0.03 70 1014.2
20260505195526 61 282 4.3 11.3 0.00 0.03 0.03 70 1014.2
20260505195005 61 271 4.3 12.2 0.00 0.03 0.03 71 1014.3
20260505194505 61 270 4.3 12.2 0.00 0.03 0.03 71 1014.3
20260505194026 61 268 5.2 11.3 0.00 0.03 0.03 72 1014.3
20260505193527 61 268 6.1 11.3 0.00 0.03 0.03 72 1014.3
20260505193006 60 271 6.1 11.3 0.00 0.03 0.03 72 1014.3
20260505192527 61 272 5.2 9.6 0.00 0.03 0.03 71 1014.2
20260505192027 61 265 5.2 11.3 0.00 0.03 0.03 72 1014.2
20260505191527 61 261 6.1 11.3 0.00 0.03 0.03 71 1014.2
20260505191026 61 267 6.1 12.2 0.00 0.03 0.03 70 1014.3
20260505190506 61 284 6.1 12.2 0.00 0.03 0.03 70 1014.2
20260505190027 61 281 6.1 11.3 0.00 0.03 0.03 71 1014.1
20260505185505 61 271 5.2 11.3 0.00 0.03 0.03 70 1014.0
20260505185026 61 269 6.1 11.3 0.00 0.03 0.03 73 1013.9
20260505184505 60 265 7.0 11.3 0.00 0.03 0.03 73 1013.9
20260505184005 60 259 6.1 11.3 0.00 0.03 0.03 75 1013.9
20260505183506 60 262 6.1 12.2 0.00 0.03 0.03 74 1013.9
20260505183026 60 264 6.1 12.2 0.00 0.03 0.03 75 1014.0
20260505182505 59 257 6.1 11.3 0.00 0.03 0.03 76 1014.0
20260505182005 59 260 4.3 10.4 0.00 0.03 0.03 75 1014.0
20260505181526 59 276 3.5 8.7 0.00 0.03 0.03 76 1014.0
20260505181006 59 283 2.6 7.0 0.00 0.03 0.03 76 1014.0
20260505180505 59 288 2.6 7.8 0.00 0.03 0.03 77 1014.0
20260505180026 59 293 2.6 7.8 0.00 0.03 0.03 77 1014.0
20260505175505 58 285 2.6 8.7 0.00 0.03 0.03 78 1014.0
20260505175026 58 275 3.5 8.7 0.00 0.03 0.03 78 1014.0
20260505174505 58 272 3.5 8.7 0.00 0.03 0.03 78 1014.0
20260505174005 58 279 3.5 8.7 0.00 0.03 0.03 78 1013.9
20260505173506 58 284 3.5 8.7 0.00 0.03 0.03 77 1013.9
20260505173026 58 279 4.3 8.7 0.00 0.03 0.03 77 1013.9
20260505172505 58 281 3.5 8.7 0.00 0.03 0.03 77 1013.8
20260505172005 58 283 2.6 7.0 0.00 0.03 0.03 78 1013.8
20260505171505 58 281 3.5 8.7 0.00 0.03 0.03 77 1013.8
20260505171026 58 279 3.5 8.7 0.00 0.03 0.03 77 1013.8
20260505170505 58 268 3.5 9.6 0.00 0.03 0.03 77 1013.8
20260505170005 58 258 3.5 9.6 0.00 0.03 0.03 77 1013.7
20260505165505 58 260 4.3 8.7 0.00 0.03 0.03 77 1013.7
20260505165026 58 266 4.3 8.7 0.00 0.03 0.03 77 1013.7
20260505164505 58 269 3.5 8.7 0.00 0.03 0.03 76 1013.7
20260505164005 58 271 3.5 8.7 0.00 0.03 0.03 76 1013.7
20260505163505 58 269 3.5 7.8 0.00 0.03 0.03 76 1013.7
20260505163006 58 261 3.5 8.7 0.00 0.03 0.03 76 1013.7
20260505162505 58 260 3.5 8.7 0.00 0.03 0.03 76 1013.7
20260505162005 57 266 2.6 7.8 0.00 0.03 0.03 76 1013.7
20260505161505 57 269 2.6 7.8 0.00 0.03 0.03 76 1013.6
20260505161005 57 268 3.5 9.6 0.00 0.03 0.03 75 1013.6
20260505160505 57 269 1.7 9.6 0.00 0.03 0.03 75 1013.7
20260505153005 56 298 1.7 3.5 0.00 0.03 0.03 77 1013.6
20260505152505 56 297 0.9 3.5 0.00 0.03 0.03 77 1013.5
20260505152005 56 294 0.9 2.6 0.00 0.03 0.03 77 1013.4
20260505151526 56 293 0.9 3.5 0.00 0.03 0.03 78 1013.4
20260505151005 56 292 0.9 3.5 0.00 0.03 0.03 78 1013.4
20260505150505 56 284 0.9 2.6 0.00 0.03 0.03 79 1013.3
20260505140505 55 0 0.0 0.0 0.00 0.03 0.03 85 1012.8